�������l�o���
Date,Time,MP-1(��Sv/h),MP-2(��Sv/h),MP-3(��Sv/h),MP-4(��Sv/h),MP-5(��Sv/h),MP-6(��Sv/h),MP-7(��Sv/h),����,����(m/s),���J
2016/04/20,00:00,0.455,0.261,0.478,0.420,0.393,0.213,0.185,�k,2.4,��
2016/04/20,00:10,0.452,0.263,0.475,0.419,0.392,0.214,0.187,�k�k��,1.2,��
2016/04/20,00:20,0.456,0.263,0.475,0.421,0.393,0.214,0.187,�k,3.3,��
2016/04/20,00:30,0.454,0.264,0.478,0.419,0.394,0.213,0.186,�k,2.6,��
2016/04/20,00:40,0.454,0.262,0.475,0.421,0.393,0.214,0.185,�k�k��,2.6,��
2016/04/20,00:50,0.456,0.264,0.478,0.421,0.392,0.213,0.186,�k,3.1,��
2016/04/20,01:00,0.453,0.262,0.476,0.419,0.394,0.213,0.185,�k,5.4,��
2016/04/20,01:10,0.456,0.262,0.476,0.420,0.391,0.214,0.187,�k,6.9,��
2016/04/20,01:20,0.455,0.263,0.478,0.421,0.392,0.214,0.185,�k,7.4,��
2016/04/20,01:30,0.453,0.263,0.477,0.420,0.393,0.213,0.187,�k,6.9,��
2016/04/20,01:40,0.457,0.262,0.474,0.421,0.393,0.214,0.186,�k,7.0,��
2016/04/20,01:50,0.456,0.262,0.475,0.422,0.392,0.214,0.186,�k,5.6,��
2016/04/20,02:00,0.454,0.263,0.477,0.420,0.394,0.213,0.186,�k,4.8,��
2016/04/20,02:10,0.456,0.262,0.475,0.421,0.392,0.213,0.187,�k,5.0,��
2016/04/20,02:20,0.453,0.262,0.478,0.422,0.392,0.213,0.186,�k,5.3,��
2016/04/20,02:30,0.457,0.263,0.476,0.419,0.393,0.214,0.188,�k,6.5,��
2016/04/20,02:40,0.456,0.264,0.476,0.421,0.392,0.213,0.185,�k,5.6,��
2016/04/20,02:50,0.454,0.262,0.479,0.422,0.393,0.214,0.187,�k,5.8,��
2016/04/20,03:00,0.456,0.263,0.476,0.421,0.391,0.214,0.186,�k,6.7,��
2016/04/20,03:10,0.457,0.264,0.476,0.421,0.392,0.214,0.187,�k,7.4,��
2016/04/20,03:20,0.455,0.264,0.478,0.423,0.394,0.215,0.185,�k,6.8,��
2016/04/20,03:30,0.453,0.263,0.476,0.421,0.391,0.214,0.186,�k,5.3,��
2016/04/20,03:40,0.457,0.263,0.475,0.421,0.392,0.213,0.186,�k,4.6,��
2016/04/20,03:50,0.455,0.264,0.478,0.422,0.394,0.214,0.186,�k�k��,5.3,��
2016/04/20,04:00,0.456,0.263,0.477,0.421,0.391,0.214,0.185,�k,6.1,��
2016/04/20,04:10,0.456,0.263,0.475,0.420,0.390,0.213,0.187,�k,5.8,��
2016/04/20,04:20,0.454,0.263,0.477,0.421,0.393,0.213,0.187,�k,5.6,��
2016/04/20,04:30,0.455,0.263,0.478,0.422,0.394,0.214,0.187,�k�k��,5.5,��
2016/04/20,04:40,0.455,0.263,0.475,0.420,0.391,0.214,0.186,�k�k��,4.7,��
2016/04/20,04:50,0.454,0.264,0.477,0.420,0.393,0.213,0.187,�k,4.0,��
2016/04/20,05:00,0.456,0.263,0.477,0.422,0.393,0.214,0.187,�k,3.4,��
2016/04/20,05:10,0.456,0.263,0.475,0.419,0.393,0.214,0.187,�k,4.5,��
2016/04/20,05:20,0.453,0.263,0.476,0.419,0.392,0.214,0.187,�k,5.0,��
2016/04/20,05:30,0.455,0.263,0.477,0.421,0.392,0.215,0.186,�k,3.9,��
2016/04/20,05:40,0.454,0.261,0.475,0.421,0.392,0.214,0.186,�k�k��,3.3,��
2016/04/20,05:50,0.454,0.263,0.476,0.419,0.391,0.214,0.186,�k,3.1,��
2016/04/20,06:00,0.452,0.262,0.476,0.421,0.391,0.214,0.186,�k,1.9,��
2016/04/20,06:10,0.456,0.263,0.476,0.421,0.394,0.214,0.186,�k,1.6,��
2016/04/20,06:20,0.453,0.264,0.473,0.420,0.391,0.213,0.185,�k�k��,1.6,��
2016/04/20,06:30,0.453,0.262,0.478,0.420,0.391,0.214,0.184,�k,1.3,��
2016/04/20,06:40,0.456,0.262,0.477,0.422,0.392,0.213,0.186,�k,1.5,��
2016/04/20,06:50,0.453,0.262,0.474,0.419,0.390,0.214,0.185,-,CALM,��
2016/04/20,07:00,0.454,0.263,0.475,0.420,0.391,0.213,0.186,�k,1.4,��
2016/04/20,07:10,0.456,0.262,0.471,0.422,0.392,0.213,0.185,�k,1.1,��
2016/04/20,07:20,0.453,0.263,0.474,0.417,0.390,0.213,0.186,�k��,2.3,��
2016/04/20,07:30,0.454,0.260,0.472,0.419,0.393,0.212,0.186,�k��,1.9,��
2016/04/20,07:40,0.453,0.261,0.474,0.416,0.392,0.213,0.185,���k��,0.9,��
2016/04/20,07:50,0.453,0.261,0.476,0.420,0.391,0.214,0.186,���k��,1.7,��
2016/04/20,08:00,0.454,0.262,0.475,0.416,0.393,0.214,0.186,���k��,2.1,��
2016/04/20,08:10,0.452,0.263,0.478,0.419,0.390,0.212,0.185,���k��,2.0,��
2016/04/20,08:20,0.454,0.263,0.473,0.418,0.393,0.214,0.186,�k��,1.6,��
2016/04/20,08:30,0.451,0.261,0.478,0.417,0.392,0.213,0.186,�k��,2.5,��
2016/04/20,08:40,0.454,0.262,0.475,0.419,0.393,0.214,0.186,�k��,1.1,��
2016/04/20,08:50,0.450,0.261,0.474,0.416,0.391,0.212,0.185,�k�k��,2.1,��
2016/04/20,09:00,0.455,0.262,0.476,0.421,0.394,0.214,0.185,�k�k��,2.5,��
2016/04/20,09:10,0.451,0.261,0.474,0.416,0.389,0.213,0.185,�k��,1.7,��
2016/04/20,09:20,0.456,0.261,0.477,0.420,0.396,0.213,0.186,�k��,3.1,��
2016/04/20,09:30,0.450,0.261,0.472,0.420,0.390,0.213,0.186,�k��,2.8,��
2016/04/20,09:40,0.456,0.264,0.477,0.417,0.395,0.214,0.187,��,2.6,��
2016/04/20,09:50,0.452,0.261,0.474,0.420,0.390,0.214,0.186,���k��,2.2,��
2016/04/20,10:00,0.454,0.263,0.478,0.417,0.396,0.214,0.186,��,1.5,��
2016/04/20,10:10,0.454,0.262,0.474,0.422,0.391,0.214,0.186,���쓌,2.2,��
2016/04/20,10:20,0.450,0.261,0.477,0.419,0.394,0.213,0.185,���쓌,2.5,��
2016/04/20,10:30,0.455,0.262,0.474,0.416,0.392,0.214,0.186,��쓌,1.6,��
2016/04/20,10:40,0.451,0.263,0.475,0.422,0.391,0.211,0.186,��쓌,2.0,��
2016/04/20,10:50,0.453,0.264,0.474,0.419,0.395,0.213,0.186,��쓌,2.7,��
2016/04/20,11:00,0.453,0.261,0.471,0.420,0.390,0.214,0.186,��,1.8,��
2016/04/20,11:10,0.450,0.263,0.477,0.421,0.395,0.213,0.187,�쓌,2.2,��
2016/04/20,11:20,0.457,0.262,0.473,0.417,0.392,0.213,0.187,�쓌,2.7,��
2016/04/20,11:30,0.452,0.263,0.473,0.421,0.394,0.214,0.186,��쓌,2.8,��
2016/04/20,11:40,0.451,0.262,0.476,0.421,0.394,0.213,0.187,��쓌,3.4,��
2016/04/20,11:50,0.454,0.264,0.473,0.419,0.390,0.212,0.186,��쓌,4.5,��
2016/04/20,12:00,0.450,0.261,0.476,0.423,0.397,0.213,0.187,��,4.7,��
2016/04/20,12:10,0.455,0.262,0.476,0.419,0.391,0.213,0.186,��,5.3,��
2016/04/20,12:20,0.455,0.262,0.471,0.422,0.395,0.214,0.187,��,5.9,��
2016/04/20,12:30,0.451,0.261,0.477,0.420,0.395,0.213,0.185,��쓌,5.6,��
2016/04/20,12:40,0.458,0.264,0.476,0.419,0.392,0.213,0.187,��쓌,5.7,��
2016/04/20,12:50,0.453,0.263,0.472,0.423,0.396,0.213,0.186,��,6.6,��
2016/04/20,13:00,0.456,0.263,0.479,0.420,0.390,0.213,0.187,��,7.8,��
2016/04/20,13:10,0.454,0.261,0.474,0.423,0.395,0.214,0.186,��쓌,8.8,��
2016/04/20,13:20,0.455,0.263,0.474,0.421,0.393,0.214,0.186,��,9.4,��
2016/04/20,13:30,0.457,0.262,0.478,0.423,0.394,0.213,0.187,��쓌,8.2,��
2016/04/20,13:40,0.453,0.264,0.474,0.422,0.394,0.214,0.187,��,8.6,��
2016/04/20,13:50,0.455,0.262,0.478,0.422,0.391,0.214,0.187,��,10.1,��
2016/04/20,14:00,0.453,0.265,0.475,0.423,0.396,0.213,0.186,��,10.1,��
2016/04/20,14:10,0.458,0.263,0.474,0.422,0.393,0.215,0.187,��,10.7,��
2016/04/20,14:20,0.453,0.261,0.480,0.425,0.397,0.214,0.186,��,11.1,��
2016/04/20,14:30,0.455,0.262,0.474,0.419,0.392,0.215,0.186,��,11.0,��
2016/04/20,14:40,0.456,0.264,0.480,0.424,0.393,0.213,0.185,��,12.3,��
2016/04/20,14:50,0.454,0.261,0.477,0.419,0.394,0.214,0.187,��,14.2,��
2016/04/20,15:00,0.456,0.263,0.476,0.424,0.393,0.214,0.187,��,12.8,��
2016/04/20,15:10,0.455,0.263,0.481,0.423,0.396,0.214,0.187,��,12.7,��
2016/04/20,15:20,0.458,0.264,0.476,0.425,0.393,0.215,0.187,��,11.5,��
2016/04/20,15:30,0.456,0.263,0.480,0.423,0.394,0.213,0.186,��,13.7,��
2016/04/20,15:40,0.454,0.264,0.477,0.423,0.393,0.214,0.187,��,12.6,��
2016/04/20,15:50,0.456,0.263,0.480,0.426,0.396,0.214,0.188,��,13.7,��
2016/04/20,16:00,0.454,0.265,0.480,0.423,0.392,0.213,0.187,��,13.2,��
2016/04/20,16:10,0.458,0.263,0.480,0.425,0.398,0.213,0.186,��쐼,11.5,��
2016/04/20,16:20,0.455,0.264,0.481,0.423,0.392,0.214,0.187,��쐼,12.2,��
2016/04/20,16:30,0.455,0.264,0.478,0.423,0.395,0.213,0.186,��쐼,11.0,��
2016/04/20,16:40,0.454,0.263,0.479,0.424,0.394,0.215,0.187,��쐼,8.5,��
2016/04/20,16:50,0.460,0.265,0.478,0.422,0.397,0.214,0.187,��쐼,10.1,��
2016/04/20,17:00,0.454,0.263,0.480,0.426,0.393,0.215,0.187,��쐼,10.9,��
2016/04/20,17:10,0.457,0.264,0.477,0.422,0.397,0.214,0.187,��,11.5,��
2016/04/20,17:20,0.456,0.265,0.480,0.423,0.395,0.215,0.187,��,10.4,��
2016/04/20,17:30,0.458,0.263,0.477,0.423,0.395,0.214,0.187,��쐼,8.0,��
2016/04/20,17:40,0.454,0.264,0.480,0.423,0.397,0.213,0.187,��쐼,3.6,��
2016/04/20,17:50,0.456,0.263,0.476,0.424,0.393,0.214,0.186,��쐼,6.1,��
2016/04/20,18:00,0.454,0.265,0.479,0.422,0.397,0.214,0.187,��,10.1,��
2016/04/20,18:10,0.455,0.264,0.478,0.423,0.394,0.214,0.187,��쐼,10.8,��
2016/04/20,18:20,0.458,0.263,0.479,0.421,0.395,0.213,0.187,��,11.4,��
2016/04/20,18:30,0.454,0.265,0.480,0.422,0.394,0.213,0.186,��,12.2,��
2016/04/20,18:40,0.457,0.263,0.478,0.425,0.393,0.214,0.187,��,12.6,��
2016/04/20,18:50,0.457,0.264,0.481,0.423,0.394,0.214,0.187,��,12.1,��
2016/04/20,19:00,0.457,0.264,0.478,0.424,0.394,0.213,0.188,��,12.2,��
2016/04/20,19:10,0.458,0.264,0.478,0.423,0.394,0.215,0.188,��쐼,13.7,��
2016/04/20,19:20,0.454,0.263,0.480,0.423,0.396,0.213,0.188,��,12.9,��
2016/04/20,19:30,0.459,0.264,0.477,0.425,0.393,0.214,0.187,��쐼,13.5,��
2016/04/20,19:40,0.455,0.263,0.480,0.422,0.396,0.214,0.188,��쐼,12.2,��
2016/04/20,19:50,0.457,0.265,0.480,0.423,0.393,0.214,0.189,��쐼,12.6,��
2016/04/20,20:00,0.458,0.262,0.478,0.424,0.394,0.215,0.187,��쐼,11.2,��
2016/04/20,20:10,0.454,0.263,0.481,0.421,0.394,0.215,0.188,��쐼,11.7,��
2016/04/20,20:20,0.457,0.266,0.478,0.425,0.395,0.214,0.188,��쐼,12.4,��
2016/04/20,20:30,0.456,0.265,0.481,0.423,0.395,0.214,0.187,��쐼,12.4,��
2016/04/20,20:40,0.456,0.264,0.477,0.422,0.394,0.213,0.187,��쐼,11.5,��
2016/04/20,20:50,0.455,0.265,0.478,0.425,0.393,0.215,0.186,��쐼,11.1,��
2016/04/20,21:00,0.454,0.263,0.480,0.422,0.394,0.214,0.187,��쐼,11.6,��
2016/04/20,21:10,0.458,0.264,0.476,0.423,0.395,0.213,0.187,��쐼,10.9,��
2016/04/20,21:20,0.455,0.264,0.482,0.422,0.393,0.215,0.187,��쐼,10.3,��
2016/04/20,21:30,0.457,0.262,0.477,0.422,0.395,0.214,0.188,��쐼,10.1,��
2016/04/20,21:40,0.455,0.265,0.480,0.425,0.393,0.215,0.187,��쐼,9.4,��
2016/04/20,21:50,0.456,0.263,0.478,0.423,0.393,0.215,0.187,��쐼,9.3,��
2016/04/20,22:00,0.457,0.264,0.477,0.425,0.394,0.214,0.188,��쐼,8.4,��
2016/04/20,22:10,0.453,0.264,0.480,0.423,0.393,0.215,0.187,��쐼,8.0,��
2016/04/20,22:20,0.458,0.263,0.476,0.423,0.395,0.215,0.187,��쐼,8.5,��
2016/04/20,22:30,0.456,0.264,0.481,0.425,0.393,0.214,0.188,��쐼,7.5,��
2016/04/20,22:40,0.455,0.265,0.478,0.420,0.394,0.215,0.187,��쐼,8.4,��
2016/04/20,22:50,0.459,0.265,0.479,0.424,0.395,0.214,0.187,��쐼,8.1,��
2016/04/20,23:00,0.454,0.263,0.479,0.424,0.392,0.215,0.188,��쐼,7.6,��
2016/04/20,23:10,0.457,0.265,0.477,0.423,0.395,0.214,0.188,��쐼,6.4,��
2016/04/20,23:20,0.455,0.265,0.480,0.426,0.392,0.215,0.187,��쐼,7.3,��
2016/04/20,23:30,0.456,0.265,0.477,0.423,0.394,0.214,0.187,��쐼,7.8,��
2016/04/20,23:40,0.456,0.265,0.479,0.423,0.394,0.213,0.187,��쐼,7.9,��
2016/04/20,23:50,0.453,0.264,0.477,0.425,0.394,0.214,0.187,��쐼,8.7,��
